Location: Blankensee
(53.5126°N, 14.3055°E)
Time: 18:55:38
(UTC+00:00)

GEOS 3 Rocket - Pass Details

Date: 08 August 2020
Orbit: 770 x 849 km, 115.0° (Epoch: 20 September)

Event Time Altitude Azimuth Distance (km) Brightness Sun altitude
Rises 00:08:16 0° 46° (NE) 3,416 7.9 -19.2°
Reaches altitude 10° 00:10:41 10° 52° (NE) 2,481 6.9 -19.2°
Maximum altitude 00:15:56 49° 127° (SE) 1,088 4.1 -18.9°
Enters shadow 00:18:01 33° 181° (S) 1,403 4.3 -18.8°
